QPF
0.00 0.00 0.00 0.01 0.01 0.02 0.02 0.02 0.02 0.03 0.02 0.02 0.02 0.01 0.01 0.01 0.02 0.02 0.02 0.02 0.02 0.02 0.02 0.01 0.01 0.01 0.01 0.01 0.02 0.02 0.02 0.02 0.02 0.02 0.02 0.02 0.02 0.02 0.02 0.02 0.03 0.03 0.02
0.00 0.00 0.00 0.00 0.01 0.02 0.02 0.02 0.02 0.02 0.02 0.02 0.02 0.02 0.01 0.01 0.01 0.01 0.01 0.01 0.01 0.01 0.02 0.02 0.02 0.01 0.01 0.01 0.01 0.01 0.01 0.02 0.02 0.02 0.01 0.02 0.02 0.02 0.02 0.02 0.02 0.03 0.03
0.00 0.00 0.00 0.01 0.01 0.02 0.02 0.03 0.03 0.02 0.02 0.02 0.02 0.02 0.01 0.01 0.01 0.01 0.01 0.01 0.01 0.01 0.01 0.01 0.01 0.02 0.01 0.01 0.01 0.01 0.01 0.01 0.01 0.02 0.01 0.01 0.02 0.02 0.02 0.03 0.02 0.02 0.03
0.00 0.00 0.01 0.01 0.01 0.02 0.03 0.03 0.03 0.02 0.02 0.02 0.02 0.02 0.01 0.01 0.01 0.01 0.01 0.01 0.01 0.01 0.01 0.01 0.01 0.01 0.01 0.01 0.01 0.01 0.01 0.01 0.01 0.02 0.02 0.01 0.02 0.03 0.03 0.04 0.03 0.03 0.03
0.00 0.01 0.01 0.02 0.02 0.02 0.02 0.02 0.02 0.02 0.02 0.02 0.02 0.02 0.02 0.01 0.01 0.01 0.01 0.01 0.01 0.01 0.01 0.01 0.01 0.01 0.01 0.02 0.02 0.02 0.01 0.01 0.02 0.02 0.03 0.02 0.02 0.04 0.04 0.05 0.04 0.04 0.03
0.01 0.02 0.02 0.02 0.02 0.02 0.02 0.02 0.03 0.02 0.02 0.02 0.02 0.02 0.02 0.01 0.01 0.01 0.01 0.02 0.01 0.01 0.01 0.01 0.01 0.01 0.01 0.02 0.02 0.02 0.02 0.02 0.02 0.03 0.03 0.03 0.04 0.06 0.06 0.06 0.05 0.04 0.04
0.02 0.02 0.02 0.03 0.02 0.02 0.02 0.02 0.02 0.02 0.02 0.02 0.01 0.01 0.01 0.01 0.01 0.01 0.02 0.01 0.01 0.01 0.01 0.01 0.01 0.01 0.01 0.01 0.02 0.02 0.01 0.01 0.02 0.02 0.04 0.05 0.06 0.08 0.08 0.07 0.05 0.04 0.04
0.02 0.02 0.03 0.03 0.03 0.02 0.02 0.02 0.02 0.02 0.03 0.03 0.02 0.01 0.01 0.01 0.01 0.01 0.01 0.01 0.01 0.01 0.01 0.01 0.01 0.01 0.01 0.02 0.02 0.02 0.01 0.01 0.01 0.02 0.04 0.05 0.06 0.08 0.07 0.06 0.05 0.03 0.03
0.02 0.02 0.02 0.02 0.02 0.02 0.02 0.02 0.02 0.02 0.02 0.04 0.06 0.05 0.03 0.02 0.02 0.01 0.01 0.01 0.01 0.01 0.01 0.01 0.01 0.01 0.02 0.02 0.02 0.02 0.02 0.01 0.02 0.02 0.03 0.04 0.05 0.06 0.06 0.05 0.03 0.03 0.04
0.02 0.02 0.02 0.02 0.02 0.02 0.01 0.01 0.02 0.02 0.02 0.02 0.05 0.08 0.07 0.05 0.04 0.03 0.03 0.02 0.02 0.02 0.02 0.02 0.01 0.01 0.02 0.02 0.02 0.02 0.02 0.02 0.03 0.03 0.03 0.04 0.04 0.06 0.07 0.06 0.04 0.04 0.05
0.02 0.02 0.02 0.02 0.01 0.01 0.01 0.01 0.01 0.01 0.02 0.02 0.03 0.04 0.07 0.08 0.07 0.06 0.06 0.05 0.04 0.03 0.02 0.02 0.02 0.02 0.02 0.03 0.02 0.02 0.03 0.03 0.03 0.03 0.03 0.03 0.03 0.05 0.05 0.05 0.05 0.05 0.05
0.02 0.01 0.01 0.01 0.01 0.01 0.01 0.01 0.01 0.01 0.01 0.02 0.02 0.03 0.04 0.06 0.07 0.08 0.10 0.10 0.08 0.05 0.04 0.03 0.03 0.03 0.03 0.03 0.03 0.03 0.03 0.03 0.03 0.03 0.03 0.03 0.04 0.06 0.06 0.05 0.05 0.05 0.04
0.02 0.01 0.01 0.01 0.01 0.01 0.01 0.01 0.01 0.02 0.01 0.01 0.02 0.03 0.04 0.05 0.05 0.05 0.06 0.09 0.11 0.10 0.08 0.06 0.04 0.03 0.03 0.03 0.03 0.04 0.04 0.03 0.03 0.03 0.03 0.03 0.04 0.05 0.05 0.04 0.03 0.03 0.04
0.02 0.01 0.01 0.01 0.01 0.01 0.01 0.01 0.01 0.02 0.02 0.02 0.01 0.02 0.02 0.02 0.03 0.03 0.03 0.03 0.05 0.05 0.06 0.06 0.05 0.05 0.04 0.04 0.04 0.04 0.04 0.02 0.02 0.02 0.02 0.02 0.03 0.03 0.04 0.03 0.03 0.03 0.04
0.02 0.01 0.01 0.01 0.01 0.01 0.01 0.01 0.01 0.02 0.02 0.02 0.02 0.02 0.02 0.02 0.02 0.02 0.02 0.02 0.02 0.03 0.02 0.02 0.03 0.04 0.03 0.03 0.04 0.04 0.03 0.03 0.02 0.02 0.02 0.02 0.02 0.02 0.03 0.03 0.03 0.03 0.03
0.03 0.02 0.01 0.01 0.01 0.01 0.01 0.01 0.01 0.01 0.02 0.02 0.02 0.02 0.02 0.02 0.02 0.02 0.02 0.02 0.03 0.02 0.02 0.02 0.02 0.02 0.02 0.02 0.02 0.03 0.03 0.03 0.02 0.02 0.02 0.02 0.02 0.02 0.03 0.03 0.02 0.02 0.03
0.03 0.02 0.02 0.01 0.01 0.01 0.01 0.01 0.01 0.01 0.01 0.01 0.01 0.02 0.01 0.02 0.02 0.02 0.03 0.03 0.03 0.02 0.02 0.02 0.02 0.02 0.02 0.02 0.02 0.02 0.02 0.02 0.02 0.02 0.03 0.03 0.03 0.03 0.03 0.03 0.03 0.03 0.03
0.02 0.02 0.01 0.01 0.01 0.01 0.01 0.01 0.01 0.01 0.01 0.01 0.01 0.01 0.01 0.01 0.01 0.02 0.02 0.02 0.02 0.02 0.02 0.02 0.01 0.01 0.02 0.02 0.02 0.02 0.02 0.02 0.02 0.02 0.03 0.03 0.03 0.04 0.04 0.03 0.03 0.03 0.03
0.01 0.01 0.01 0.01 0.01 0.01 0.01 0.01 0.01 0.01 0.01 0.01 0.01 0.01 0.01 0.01 0.01 0.02 0.02 0.02 0.02 0.02 0.02 0.02 0.02 0.02 0.02 0.02 0.02 0.02 0.02 0.02 0.02 0.02 0.03 0.03 0.03 0.03 0.03 0.03 0.03 0.03 0.03
0.01 0.01 0.01 0.01 0.01 0.01 0.01 0.01 0.01 0.01 0.01 0.01 0.01 0.01 0.01 0.01 0.01 0.01 0.01 0.01 0.02 0.02 0.02 0.02 0.02 0.03 0.03 0.03 0.03 0.03 0.03 0.03 0.03 0.03 0.03 0.03 0.03 0.03 0.03 0.03 0.03 0.03 0.03
0.01 0.01 0.01 0.01 0.01 0.01 0.01 0.01 0.01 0.01 0.01 0.01 0.01 0.02 0.02 0.01 0.01 0.02 0.02 0.02 0.02 0.02 0.02 0.03 0.03 0.03 0.04 0.04 0.04 0.04 0.04 0.03 0.03 0.03 0.03 0.03 0.03 0.03 0.03 0.03 0.03 0.03 0.03
0.01 0.01 0.01 0.01 0.01 0.01 0.01 0.01 0.01 0.01 0.01 0.01 0.01 0.01 0.02 0.02 0.02 0.02 0.02 0.02 0.02 0.03 0.03 0.03 0.03 0.03 0.03 0.03 0.03 0.03 0.03 0.03 0.03 0.03 0.03 0.03 0.03 0.03 0.03 0.03 0.03 0.03 0.02
0.01 0.01 0.01 0.01 0.01 0.01 0.01 0.01 0.01 0.01 0.01 0.01 0.01 0.01 0.01 0.01 0.02 0.02 0.02 0.02 0.02 0.02 0.02 0.03 0.03 0.03 0.02 0.02 0.02 0.03 0.03 0.03 0.03 0.03 0.03 0.03 0.03 0.03 0.03 0.02 0.02 0.02 0.02
0.01 0.01 0.01 0.01 0.01 0.01 0.01 0.01 0.01 0.01 0.01 0.01 0.01 0.01 0.01 0.01 0.01 0.02 0.01 0.01 0.02 0.02 0.02 0.02 0.02 0.03 0.02 0.02 0.02 0.02 0.02 0.02 0.03 0.03 0.03 0.02 0.02 0.02 0.02 0.02 0.02 0.02 0.02
0.01 0.01 0.01 0.01 0.01 0.01 0.01 0.01 0.01 0.01 0.01 0.01 0.01 0.01 0.01 0.01 0.01 0.01 0.01 0.01 0.01 0.01 0.01 0.01 0.02 0.02 0.02 0.02 0.02 0.02 0.02 0.02 0.02 0.02 0.02 0.02 0.02 0.02 0.02 0.02 0.02 0.02 0.02
0.01 0.01 0.01 0.01 0.01 0.01 0.01 0.01 0.01 0.01 0.01 0.01 0.01 0.01 0.01 0.01 0.01 0.01 0.01 0.01 0.01 0.01 0.01 0.01 0.01 0.02 0.02 0.02 0.02 0.02 0.03 0.02 0.02 0.02 0.02 0.02 0.02 0.02 0.02 0.02 0.02 0.02 0.02
MSLP
1021.86 1022.78 1023.65 1024.42 1025.07 1025.59 1025.98 1026.28 1026.49 1026.65 1026.75 1026.79 1026.76 1026.63 1026.39 1026.04 1025.59 1025.07 1024.51 1023.94 1023.40 1022.87 1022.33 1021.75 1021.08 1020.26 1019.24 1018.00 1016.55 1014.94 1013.22 1011.47 1009.73 1008.06 1006.49 1005.01 1003.60 1002.23 1000.87 999.51 998.18 996.90 995.74
1021.37 1022.32 1023.22 1024.02 1024.70 1025.26 1025.68 1026.01 1026.26 1026.43 1026.55 1026.60 1026.56 1026.42 1026.16 1025.79 1025.32 1024.76 1024.17 1023.56 1022.96 1022.36 1021.76 1021.11 1020.37 1019.50 1018.45 1017.20 1015.77 1014.18 1012.50 1010.76 1009.02 1007.32 1005.66 1004.06 1002.48 1000.91 999.33 997.75 996.21 994.76 993.48
1020.92 1021.91 1022.85 1023.68 1024.39 1024.97 1025.42 1025.76 1026.02 1026.20 1026.32 1026.37 1026.33 1026.18 1025.91 1025.54 1025.05 1024.48 1023.86 1023.22 1022.57 1021.92 1021.25 1020.53 1019.73 1018.81 1017.73 1016.47 1015.05 1013.49 1011.83 1010.11 1008.36 1006.62 1004.89 1003.15 1001.41 999.65 997.87 996.10 994.38 992.79 991.42
1020.48 1021.53 1022.51 1023.38 1024.12 1024.71 1025.18 1025.53 1025.79 1025.98 1026.09 1026.13 1026.08 1025.93 1025.66 1025.29 1024.80 1024.23 1023.59 1022.93 1022.24 1021.54 1020.81 1020.04 1019.18 1018.21 1017.10 1015.83 1014.42 1012.87 1011.22 1009.51 1007.74 1005.95 1004.13 1002.27 1000.38 998.46 996.51 994.59 992.75 991.07 989.65
1020.04 1021.15 1022.19 1023.10 1023.87 1024.48 1024.96 1025.32 1025.58 1025.77 1025.88 1025.91 1025.86 1025.70 1025.43 1025.05 1024.57 1023.99 1023.35 1022.67 1021.95 1021.21 1020.44 1019.61 1018.71 1017.69 1016.55 1015.27 1013.85 1012.31 1010.66 1008.93 1007.13 1005.27 1003.37 1001.40 999.39 997.34 995.28 993.26 991.35 989.64 988.22
1019.57 1020.76 1021.86 1022.82 1023.62 1024.26 1024.76 1025.14 1025.41 1025.60 1025.71 1025.74 1025.68 1025.51 1025.24 1024.86 1024.37 1023.78 1023.13 1022.43 1021.69 1020.91 1020.10 1019.23 1018.28 1017.23 1016.06 1014.77 1013.34 1011.78 1010.11 1008.35 1006.51 1004.59 1002.60 1000.55 998.44 996.31 994.18 992.13 990.21 988.51 987.14
1019.09 1020.35 1021.50 1022.51 1023.36 1024.04 1024.57 1024.98 1025.27 1025.47 1025.59 1025.62 1025.54 1025.37 1025.09 1024.69 1024.19 1023.60 1022.93 1022.20 1021.43 1020.62 1019.77 1018.86 1017.87 1016.79 1015.60 1014.29 1012.84 1011.27 1009.58 1007.78 1005.89 1003.92 1001.86 999.74 997.58 995.40 993.26 991.21 989.32 987.69 986.38
1018.60 1019.92 1021.12 1022.18 1023.08 1023.81 1024.38 1024.82 1025.15 1025.38 1025.51 1025.54 1025.47 1025.28 1024.98 1024.57 1024.04 1023.42 1022.73 1021.97 1021.17 1020.32 1019.44 1018.50 1017.48 1016.38 1015.17 1013.83 1012.37 1010.78 1009.07 1007.25 1005.32 1003.30 1001.21 999.05 996.86 994.68 992.55 990.54 988.72 987.15 985.91
1018.14 1019.50 1020.74 1021.84 1022.78 1023.56 1024.19 1024.68 1025.05 1025.31 1025.46 1025.50 1025.42 1025.22 1024.90 1024.46 1023.91 1023.26 1022.53 1021.75 1020.91 1020.04 1019.13 1018.16 1017.13 1016.01 1014.79 1013.45 1011.98 1010.38 1008.66 1006.82 1004.88 1002.84 1000.72 998.56 996.38 994.21 992.12 990.16 988.40 986.90 985.72
1017.74 1019.11 1020.38 1021.50 1022.48 1023.31 1023.98 1024.53 1024.94 1025.23 1025.41 1025.46 1025.38 1025.17 1024.82 1024.36 1023.78 1023.11 1022.36 1021.55 1020.70 1019.80 1018.87 1017.90 1016.86 1015.74 1014.52 1013.18 1011.73 1010.14 1008.43 1006.59 1004.65 1002.62 1000.51 998.36 996.21 994.08 992.04 990.13 988.42 986.96 985.80
1017.43 1018.79 1020.06 1021.20 1022.21 1023.07 1023.79 1024.37 1024.82 1025.15 1025.34 1025.39 1025.31 1025.09 1024.73 1024.25 1023.66 1022.97 1022.21 1021.39 1020.53 1019.64 1018.72 1017.75 1016.72 1015.62 1014.43 1013.12 1011.69 1010.13 1008.44 1006.64 1004.73 1002.73 1000.66 998.55 996.44 994.37 992.37 990.52 988.84 987.39 986.23
1017.22 1018.56 1019.81 1020.96 1021.98 1022.86 1023.61 1024.23 1024.70 1025.04 1025.24 1025.30 1025.20 1024.97 1024.61 1024.12 1023.52 1022.84 1022.09 1021.29 1020.46 1019.59 1018.70 1017.76 1016.77 1015.71 1014.56 1013.29 1011.91 1010.41 1008.78 1007.03 1005.18 1003.24 1001.23 999.18 997.14 995.12 993.19 991.37 989.72 988.28 987.09
1017.11 1018.42 1019.66 1020.79 1021.82 1022.71 1023.47 1024.10 1024.58 1024.92 1025.11 1025.16 1025.06 1024.81 1024.44 1023.96 1023.38 1022.72 1022.01 1021.26 1020.47 1019.66 1018.83 1017.95 1017.02 1016.02 1014.93 1013.74 1012.42 1010.99 1009.44 1007.77 1006.01 1004.15 1002.23 1000.28 998.31 996.38 994.51 992.74 991.12 989.67 988.45
1017.10 1018.37 1019.58 1020.71 1021.73 1022.62 1023.38 1024.01 1024.48 1024.80 1024.97 1025.00 1024.88 1024.62 1024.26 1023.79 1023.24 1022.63 1021.97 1021.29 1020.58 1019.85 1019.10 1018.30 1017.45 1016.53 1015.53 1014.42 1013.19 1011.86 1010.40 1008.84 1007.18 1005.44 1003.63 1001.79 999.94 998.10 996.32 994.62 993.04 991.61 990.38
1017.15 1018.40 1019.59 1020.70 1021.71 1022.60 1023.35 1023.95 1024.40 1024.69 1024.84 1024.83 1024.69 1024.43 1024.06 1023.62 1023.11 1022.56 1021.98 1021.38 1020.77 1020.13 1019.47 1018.77 1018.02 1017.19 1016.28 1015.27 1014.15 1012.92 1011.59 1010.15 1008.62 1007.01 1005.35 1003.64 1001.92 1000.22 998.54 996.94 995.43 994.05 992.84
1017.24 1018.47 1019.65 1020.75 1021.76 1022.63 1023.36 1023.94 1024.36 1024.62 1024.72 1024.68 1024.52 1024.25 1023.90 1023.48 1023.03 1022.54 1022.04 1021.53 1021.01 1020.48 1019.92 1019.32 1018.66 1017.94 1017.13 1016.22 1015.21 1014.10 1012.90 1011.60 1010.22 1008.77 1007.26 1005.72 1004.16 1002.61 1001.08 999.60 998.20 996.90 995.74
1017.34 1018.56 1019.73 1020.83 1021.82 1022.68 1023.40 1023.95 1024.34 1024.56 1024.63 1024.57 1024.39 1024.12 1023.78 1023.40 1022.99 1022.58 1022.15 1021.73 1021.30 1020.86 1020.39 1019.88 1019.32 1018.69 1017.98 1017.18 1016.29 1015.30 1014.23 1013.08 1011.86 1010.58 1009.24 1007.88 1006.50 1005.11 1003.75 1002.42 1001.15 999.97 998.90
1017.43 1018.64 1019.80 1020.89 1021.88 1022.73 1023.42 1023.96 1024.32 1024.52 1024.58 1024.50 1024.31 1024.05 1023.74 1023.39 1023.03 1022.67 1022.32 1021.96 1021.61 1021.24 1020.85 1020.42 1019.94 1019.39 1018.78 1018.08 1017.30 1016.44 1015.51 1014.51 1013.45 1012.34 1011.18 1010.00 1008.80 1007.60 1006.40 1005.24 1004.12 1003.07 1002.10
1017.49 1018.68 1019.84 1020.92 1021.89 1022.73 1023.41 1023.93 1024.28 1024.47 1024.52 1024.45 1024.28 1024.04 1023.76 1023.45 1023.14 1022.83 1022.53 1022.24 1021.94 1021.63 1021.30 1020.92 1020.51 1020.03 1019.50 1018.89 1018.22 1017.48 1016.68 1015.83 1014.93 1013.98 1013.00 1011.99 1010.96 1009.93 1008.91 1007.90 1006.93 1006.01 1005.16
1017.52 1018.69 1019.82 1020.89 1021.84 1022.66 1023.34 1023.85 1024.20 1024.40 1024.46 1024.41 1024.27 1024.07 1023.83 1023.57 1023.31 1023.05 1022.79 1022.54 1022.28 1022.01 1021.71 1021.38 1021.01 1020.60 1020.13 1019.61 1019.03 1018.41 1017.74 1017.02 1016.26 1015.47 1014.64 1013.79 1012.93 1012.05 1011.17 1010.31 1009.47 1008.67 1007.94
1017.52 1018.66 1019.76 1020.79 1021.72 1022.52 1023.17 1023.68 1024.04 1024.26 1024.36 1024.35 1024.26 1024.12 1023.94 1023.73 1023.52 1023.30 1023.08 1022.86 1022.62 1022.37 1022.10 1021.80 1021.46 1021.09 1020.68 1020.24 1019.76 1019.23 1018.68 1018.09 1017.46 1016.80 1016.11 1015.39 1014.66 1013.91 1013.16 1012.41 1011.69 1010.99 1010.35
1017.50 1018.60 1019.65 1020.63 1021.52 1022.29 1022.93 1023.44 1023.81 1024.06 1024.21 1024.26 1024.23 1024.15 1024.04 1023.90 1023.74 1023.56 1023.38 1023.17 1022.95 1022.71 1022.45 1022.17 1021.86 1021.53 1021.18 1020.80 1020.40 1019.97 1019.52 1019.04 1018.53 1017.98 1017.41 1016.80 1016.17 1015.53 1014.87 1014.22 1013.59 1012.98 1012.42
1017.48 1018.52 1019.51 1020.44 1021.28 1022.01 1022.63 1023.13 1023.52 1023.81 1024.00 1024.12 1024.17 1024.16 1024.11 1024.04 1023.93 1023.79 1023.63 1023.45 1023.24 1023.01 1022.76 1022.49 1022.21 1021.91 1021.61 1021.30 1020.98 1020.64 1020.28 1019.90 1019.48 1019.04 1018.56 1018.04 1017.50 1016.94 1016.36 1015.79 1015.24 1014.71 1014.22
1017.45 1018.43 1019.36 1020.22 1021.01 1021.70 1022.30 1022.80 1023.20 1023.52 1023.77 1023.95 1024.06 1024.13 1024.15 1024.13 1024.07 1023.97 1023.83 1023.66 1023.46 1023.24 1023.00 1022.75 1022.49 1022.23 1021.98 1021.73 1021.48 1021.23 1020.95 1020.66 1020.34 1019.97 1019.58 1019.14 1018.67 1018.18 1017.68 1017.19 1016.70 1016.25 1015.83
1017.41 1018.34 1019.21 1020.02 1020.75 1021.40 1021.98 1022.47 1022.89 1023.25 1023.54 1023.77 1023.95 1024.07 1024.15 1024.17 1024.15 1024.08 1023.96 1023.80 1023.60 1023.39 1023.16 1022.92 1022.70 1022.48 1022.28 1022.10 1021.91 1021.74 1021.54 1021.33 1021.08 1020.80 1020.47 1020.11 1019.72 1019.30 1018.87 1018.45 1018.05 1017.68 1017.34
1017.37 1018.25 1019.07 1019.83 1020.53 1021.15 1021.71 1022.20 1022.64 1023.02 1023.35 1023.62 1023.84 1024.01 1024.13 1024.18 1024.18 1024.12 1024.00 1023.85 1023.66 1023.44 1023.23 1023.02 1022.82 1022.65 1022.50 1022.37 1022.26 1022.15 1022.03 1021.89 1021.72 1021.50 1021.25 1020.96 1020.63 1020.29 1019.94 1019.60 1019.29 1019.01 1018.77
Thickness
5436 5434 5432 5430 5428 5427 5425 5424 5423 5422 5421 5418 5417 5416 5415 5414 5413 5412 5412 5412 5412 5412 5412 5412 5412 5412 5413 5413 5414 5415 5417 5417 5418 5421 5423 5427 5430 5434 5438 5442 5446 5449 5453
5425 5423 5421 5420 5418 5416 5414 5414 5413 5412 5411 5409 5407 5406 5406 5405 5404 5403 5402 5402 5402 5402 5402 5402 5402 5402 5402 5403 5404 5405 5407 5407 5408 5411 5414 5416 5420 5423 5427 5431 5435 5439 5442
5414 5413 5411 5409 5407 5406 5404 5404 5403 5402 5401 5400 5398 5398 5397 5396 5396 5395 5394 5393 5393 5393 5393 5392 5393 5393 5393 5393 5394 5395 5397 5398 5399 5401 5404 5407 5410 5414 5417 5421 5424 5428 5431
5404 5403 5401 5399 5398 5396 5395 5394 5393 5392 5391 5390 5390 5389 5389 5388 5388 5387 5386 5385 5385 5384 5384 5384 5385 5385 5385 5386 5387 5387 5388 5389 5390 5392 5395 5398 5401 5404 5406 5410 5414 5417 5420
5396 5394 5392 5390 5388 5387 5386 5385 5384 5383 5382 5382 5381 5381 5380 5380 5380 5379 5379 5379 5378 5378 5377 5377 5378 5378 5379 5380 5381 5381 5380 5380 5381 5383 5386 5388 5391 5394 5396 5400 5403 5406 5409
5386 5384 5382 5381 5379 5378 5377 5376 5375 5374 5373 5373 5373 5373 5372 5372 5373 5372 5372 5372 5371 5370 5370 5371 5371 5372 5373 5374 5375 5376 5375 5374 5374 5375 5377 5380 5383 5385 5388 5391 5392 5395 5398
5377 5375 5373 5372 5371 5370 5369 5367 5366 5365 5365 5365 5365 5365 5364 5365 5365 5365 5365 5365 5364 5363 5363 5363 5364 5365 5366 5367 5368 5369 5370 5370 5371 5371 5372 5374 5376 5379 5381 5383 5384 5385 5388
5369 5367 5365 5364 5362 5361 5360 5359 5358 5357 5357 5357 5358 5358 5358 5358 5359 5359 5359 5358 5357 5357 5357 5357 5358 5359 5360 5361 5362 5363 5364 5365 5366 5367 5368 5371 5372 5374 5375 5377 5377 5378 5380
5361 5359 5357 5356 5354 5353 5352 5351 5351 5350 5350 5350 5351 5351 5351 5352 5353 5353 5353 5352 5352 5352 5352 5352 5353 5354 5355 5356 5356 5357 5359 5360 5362 5363 5364 5366 5367 5369 5370 5370 5370 5371 5372
5354 5352 5350 5349 5347 5346 5346 5345 5344 5343 5344 5344 5344 5345 5345 5345 5347 5347 5347 5347 5347 5347 5347 5348 5349 5349 5350 5351 5351 5352 5353 5355 5356 5358 5359 5360 5361 5363 5364 5363 5364 5364 5364
5347 5345 5343 5341 5340 5340 5339 5338 5338 5337 5337 5337 5338 5338 5339 5339 5340 5341 5341 5341 5341 5341 5342 5343 5343 5344 5346 5346 5347 5348 5349 5350 5351 5352 5354 5355 5356 5356 5357 5357 5357 5358 5358
5340 5338 5337 5335 5334 5334 5332 5332 5332 5331 5331 5330 5331 5332 5333 5333 5334 5335 5336 5336 5336 5335 5336 5337 5338 5339 5341 5342 5343 5344 5345 5346 5346 5347 5348 5349 5350 5350 5350 5350 5350 5351 5351
5334 5332 5330 5329 5328 5327 5326 5326 5325 5325 5325 5326 5326 5327 5327 5328 5328 5329 5330 5330 5330 5330 5331 5332 5333 5335 5336 5337 5338 5340 5341 5341 5342 5343 5344 5344 5344 5344 5344 5344 5344 5344 5345
5328 5326 5325 5324 5323 5322 5321 5321 5320 5320 5320 5321 5321 5322 5322 5322 5322 5323 5323 5323 5324 5324 5325 5326 5328 5330 5331 5333 5334 5335 5336 5336 5337 5337 5338 5338 5338 5338 5338 5338 5338 5338 5338
5322 5321 5319 5319 5317 5316 5315 5315 5314 5314 5314 5315 5316 5316 5316 5316 5317 5318 5317 5318 5318 5319 5319 5320 5321 5322 5324 5326 5328 5330 5330 5331 5332 5332 5332 5332 5332 5332 5332 5332 5333 5332 5332
5317 5316 5314 5313 5312 5311 5309 5309 5309 5309 5310 5311 5312 5312 5311 5312 5312 5313 5313 5313 5314 5314 5314 5314 5315 5317 5318 5320 5322 5323 5324 5325 5325 5326 5326 5326 5326 5326 5327 5327 5326 5326 5326
5310 5309 5309 5308 5306 5305 5304 5303 5303 5304 5305 5306 5307 5307 5306 5307 5307 5307 5308 5308 5309 5309 5308 5308 5309 5311 5312 5314 5316 5317 5318 5319 5319 5319 5320 5320 5320 5321 5321 5321 5321 5321 5320
5305 5305 5304 5302 5300 5299 5298 5298 5297 5297 5298 5298 5300 5300 5301 5301 5301 5301 5302 5302 5302 5302 5302 5302 5304 5305 5306 5308 5309 5310 5312 5313 5313 5313 5314 5314 5314 5315 5315 5315 5316 5315 5315
5301 5299 5298 5297 5296 5295 5294 5293 5292 5292 5291 5292 5293 5293 5294 5294 5294 5294 5295 5294 5294 5295 5295 5296 5298 5299 5300 5302 5303 5304 5305 5307 5307 5308 5309 5309 5309 5309 5310 5310 5310 5310 5310
5296 5296 5294 5293 5291 5290 5289 5287 5286 5286 5285 5286 5286 5286 5286 5286 5286 5286 5286 5287 5287 5288 5289 5290 5291 5293 5294 5296 5297 5298 5300 5301 5302 5303 5303 5304 5305 5305 5305 5305 5305 5305 5305
5292 5290 5290 5287 5285 5284 5283 5282 5281 5280 5280 5279 5279 5280 5281 5280 5280 5279 5279 5280 5281 5282 5283 5284 5286 5287 5289 5290 5292 5293 5295 5296 5297 5298 5298 5299 5300 5301 5301 5301 5301 5301 5301
5286 5285 5283 5281 5280 5278 5277 5276 5275 5275 5274 5274 5274 5274 5276 5275 5274 5274 5274 5275 5276 5277 5278 5279 5281 5282 5284 5285 5287 5288 5290 5291 5292 5293 5294 5294 5296 5296 5296 5297 5297 5298 5298
5282 5280 5278 5276 5274 5274 5272 5271 5270 5270 5269 5269 5269 5269 5269 5269 5268 5268 5268 5269 5270 5272 5273 5274 5276 5278 5279 5281 5282 5284 5285 5287 5288 5289 5290 5290 5291 5292 5292 5293 5294 5294 5295
5278 5275 5273 5272 5270 5269 5267 5266 5266 5266 5265 5265 5264 5264 5264 5263 5263 5263 5264 5264 5265 5267 5268 5270 5271 5273 5275 5277 5278 5280 5282 5284 5285 5286 5286 5287 5287 5288 5289 5289 5290 5291 5291
5273 5271 5269 5268 5266 5265 5264 5263 5262 5262 5262 5261 5261 5261 5260 5259 5259 5259 5260 5260 5261 5262 5264 5266 5267 5269 5271 5273 5275 5277 5279 5281 5282 5283 5283 5284 5284 5285 5285 5286 5286 5287 5288
5269 5267 5265 5264 5262 5261 5261 5260 5259 5259 5258 5258 5258 5257 5256 5256 5256 5256 5256 5257 5258 5259 5260 5262 5264 5266 5268 5270 5272 5274 5276 5278 5280 5280 5280 5281 5281 5282 5282 5283 5283 5284 5284